Time,TemperatureF,DewpointF,PressureIn,WindDirection,WindDirectionDegrees,WindSpeedMPH,WindSpeedGustMPH,Humidity,HourlyPrecipIn,Conditions,Clouds,dailyrainin,SolarRadiationWatts/m^2,SoftwareType,DateUTC
2013-01-19 00:05:00,16.6,6.9,30.42,NW,315,0.0,0.0,65,0.00,,,0.00,0000,Weather View 32 v70,2013-01-19 05:05:00,
2013-01-19 00:10:00,16.7,6.3,30.41,NW,315,0.0,0.0,63,0.00,,,0.00,0000,Weather View 32 v70,2013-01-19 05:10:00,
2013-01-19 00:15:00,17.2,5.7,30.41,NW,315,0.0,0.0,60,0.00,,,0.00,0000,Weather View 32 v70,2013-01-19 05:15:00,
2013-01-19 00:20:00,17.5,6.4,30.40,NW,315,0.0,0.0,61,0.00,,,0.00,0000,Weather View 32 v70,2013-01-19 05:20:00,
2013-01-19 00:30:00,18.0,7.9,30.39,SSW,203,0.0,0.0,64,0.00,,,0.00,0000,Weather View 32 v70,2013-01-19 05:30:00,
2013-01-19 00:40:00,18.1,8.3,30.38,SW,225,0.0,3.0,65,0.00,,,0.00,0000,Weather View 32 v70,2013-01-19 05:40:00,
2013-01-19 00:45:00,18.5,8.4,30.38,WSW,248,0.0,3.0,64,0.00,,,0.00,0016,Weather View 32 v70,2013-01-19 05:45:00,
2013-01-19 00:50:00,19.1,9.3,30.38,SSW,203,0.0,3.0,65,0.00,,,0.00,0008,Weather View 32 v70,2013-01-19 05:50:00,
2013-01-19 00:59:00,19.4,9.6,30.37,WSW,248,0.0,3.0,65,0.00,,,0.00,0000,Weather View 32 v70,2013-01-19 05:59:00,
2013-01-19 01:05:00,19.8,11.2,30.37,WSW,248,0.0,3.0,69,0.00,,,0.00,0000,Weather View 32 v70,2013-01-19 06:05:00,
2013-01-19 01:15:00,20.4,12.2,30.38,WNW,293,0.0,3.0,70,0.00,,,0.00,0000,Weather View 32 v70,2013-01-19 06:15:00,
2013-01-19 01:20:00,20.4,12.9,30.38,WNW,293,0.0,3.0,72,0.00,,,0.00,0000,Weather View 32 v70,2013-01-19 06:20:00,
2013-01-19 01:25:00,21.2,13.6,30.38,WNW,293,0.0,3.0,72,0.00,,,0.00,0000,Weather View 32 v70,2013-01-19 06:25:00,
2013-01-19 01:30:00,20.9,12.6,30.38,WSW,248,2.0,3.0,70,0.00,,,0.00,0000,Weather View 32 v70,2013-01-19 06:30:00,
2013-01-19 01:40:00,21.5,13.8,30.38,SW,225,0.0,3.0,72,0.00,,,0.00,0008,Weather View 32 v70,2013-01-19 06:40:00,
2013-01-19 01:50:00,22.0,13.7,30.38,West,270,0.0,3.0,70,0.00,,,0.00,0000,Weather View 32 v70,2013-01-19 06:50:00,
2013-01-19 01:55:00,22.4,14.1,30.38,SSW,203,0.0,3.0,70,0.00,,,0.00,0000,Weather View 32 v70,2013-01-19 06:55:00,
2013-01-19 02:00:00,22.7,14.1,30.38,SSW,203,1.0,3.0,69,0.00,,,0.00,0000,Weather View 32 v70,2013-01-19 07:00:00,
2013-01-19 02:10:00,22.5,14.2,30.36,WSW,248,0.0,3.0,70,0.00,,,0.00,0008,Weather View 32 v70,2013-01-19 07:10:00,
2013-01-19 02:20:00,23.7,15.4,30.37,SW,225,3.0,5.0,70,0.00,,,0.00,0008,Weather View 32 v70,2013-01-19 07:20:00,
2013-01-19 02:25:00,24.8,16.1,30.37,SW,225,0.0,5.0,69,0.00,,,0.00,0008,Weather View 32 v70,2013-01-19 07:25:00,
2013-01-19 02:30:00,25.6,16.9,30.37,West,270,0.0,8.0,69,0.00,,,0.00,0000,Weather View 32 v70,2013-01-19 07:30:00,
2013-01-19 02:35:00,26.3,17.2,30.36,WSW,248,0.0,8.0,68,0.00,,,0.00,0000,Weather View 32 v70,2013-01-19 07:35:00,
2013-01-19 02:40:00,26.6,17.5,30.36,WNW,293,0.0,8.0,68,0.00,,,0.00,0000,Weather View 32 v70,2013-01-19 07:40:00,
2013-01-19 02:50:00,27.0,17.5,30.36,SSW,203,3.0,8.0,67,0.00,,,0.00,0000,Weather View 32 v70,2013-01-19 07:50:00,
2013-01-19 03:01:00,27.3,17.8,30.34,West,270,0.0,8.0,67,0.00,,,0.00,0000,Weather View 32 v70,2013-01-19 08:01:00,
2013-01-19 03:10:00,27.9,18.3,30.34,SW,225,3.0,8.0,67,0.00,,,0.00,0008,Weather View 32 v70,2013-01-19 08:10:00,
2013-01-19 03:15:00,28.0,18.8,30.35,WSW,248,3.0,8.0,68,0.00,,,0.00,0000,Weather View 32 v70,2013-01-19 08:15:00,
2013-01-19 03:20:00,28.4,19.2,30.34,West,270,2.0,8.0,68,0.00,,,0.00,0000,Weather View 32 v70,2013-01-19 08:20:00,
2013-01-19 03:25:00,28.5,19.7,30.34,WSW,248,0.0,8.0,69,0.00,,,0.00,0008,Weather View 32 v70,2013-01-19 08:25:00,
2013-01-19 03:35:00,29.1,20.2,30.34,WSW,248,3.0,13.0,69,0.00,,,0.00,0000,Weather View 32 v70,2013-01-19 08:35:00,
2013-01-19 03:40:00,29.3,20.4,30.34,WSW,248,3.0,13.0,69,0.00,,,0.00,0000,Weather View 32 v70,2013-01-19 08:40:00,
2013-01-19 03:50:00,29.3,20.7,30.33,SSW,203,1.0,13.0,70,0.00,,,0.00,0000,Weather View 32 v70,2013-01-19 08:50:00,
2013-01-19 04:00:00,29.9,21.6,30.33,NW,315,0.0,13.0,71,0.00,,,0.00,0008,Weather View 32 v70,2013-01-19 09:00:00,
2013-01-19 04:10:00,30.7,22.0,30.32,SW,225,3.0,13.0,70,0.00,,,0.00,0008,Weather View 32 v70,2013-01-19 09:10:00,
2013-01-19 04:15:00,30.9,22.3,30.32,WSW,248,1.0,13.0,70,0.00,,,0.00,0000,Weather View 32 v70,2013-01-19 09:15:00,
2013-01-19 04:20:00,30.9,22.3,30.32,SW,225,0.0,14.0,70,0.00,,,0.00,0000,Weather View 32 v70,2013-01-19 09:20:00,
2013-01-19 04:25:00,30.9,22.6,30.32,West,270,4.0,14.0,71,0.00,,,0.00,0000,Weather View 32 v70,2013-01-19 09:25:00,
2013-01-19 04:35:00,31.4,23.0,30.31,West,270,4.0,14.0,71,0.00,,,0.00,0000,Weather View 32 v70,2013-01-19 09:35:00,
2013-01-19 04:40:00,31.7,23.4,30.30,SSW,203,5.0,14.0,71,0.00,,,0.00,0008,Weather View 32 v70,2013-01-19 09:40:00,
2013-01-19 04:45:00,32.0,24.0,30.30,SW,225,4.0,14.0,72,0.00,,,0.00,0008,Weather View 32 v70,2013-01-19 09:45:00,
2013-01-19 04:50:00,32.0,23.7,30.30,SW,225,6.0,14.0,71,0.00,,,0.00,0016,Weather View 32 v70,2013-01-19 09:50:00,
2013-01-19 04:55:00,32.3,24.2,30.30,WNW,293,2.0,14.0,72,0.00,,,0.00,0000,Weather View 32 v70,2013-01-19 09:55:00,
2013-01-19 05:00:00,32.4,24.3,30.29,SW,225,4.0,22.0,72,0.00,,,0.00,0008,Weather View 32 v70,2013-01-19 10:00:00,
2013-01-19 05:05:00,32.6,24.2,30.29,SSW,203,4.0,22.0,71,0.00,,,0.00,0000,Weather View 32 v70,2013-01-19 10:05:00,
2013-01-19 05:15:00,32.8,24.1,30.28,NW,315,2.0,22.0,70,0.00,,,0.00,0000,Weather View 32 v70,2013-01-19 10:15:00,
2013-01-19 05:25:00,33.0,24.3,30.29,West,270,2.0,22.0,70,0.00,,,0.00,0000,Weather View 32 v70,2013-01-19 10:25:00,
2013-01-19 05:30:00,33.2,24.1,30.28,SSW,203,2.0,22.0,69,0.00,,,0.00,0000,Weather View 32 v70,2013-01-19 10:30:00,
2013-01-19 05:40:00,33.5,24.4,30.28,SW,225,6.0,22.0,69,0.00,,,0.00,0000,Weather View 32 v70,2013-01-19 10:40:00,
2013-01-19 05:50:00,33.6,24.2,30.28,WSW,248,5.0,22.0,68,0.00,,,0.00,0000,Weather View 32 v70,2013-01-19 10:50:00,
2013-01-19 06:00:00,34.3,24.1,30.28,West,270,7.0,22.0,66,0.00,,,0.00,0000,Weather View 32 v70,2013-01-19 11:00:00,
2013-01-19 06:05:00,34.4,23.8,30.28,SW,225,0.0,22.0,65,0.00,,,0.00,0000,Weather View 32 v70,2013-01-19 11:05:00,
2013-01-19 07:50:00,36.3,27.1,30.25,West,270,3.0,37.0,69,0.00,,,0.00,0040,Weather View 32 v70,2013-01-19 12:50:00,
2013-01-19 08:00:00,36.5,27.7,30.25,WSW,248,4.0,37.0,70,0.00,,,0.00,0064,Weather View 32 v70,2013-01-19 13:00:00,
2013-01-19 08:03:00,36.5,27.7,30.25,WSW,248,4.0,37.0,70,0.00,,,0.00,0064,Weather View 32 v70,2013-01-19 13:03:00,
2013-01-19 08:05:00,36.9,27.6,30.25,West,270,10.0,37.0,69,0.00,,,0.00,0080,Weather View 32 v70,2013-01-19 13:05:00,
2013-01-19 08:10:00,37.3,28.1,30.25,SW,225,7.0,37.0,69,0.00,,,0.00,0072,Weather View 32 v70,2013-01-19 13:10:00,
2013-01-19 08:15:00,37.7,28.4,30.25,WSW,248,6.0,37.0,69,0.00,,,0.00,0096,Weather View 32 v70,2013-01-19 13:15:00,
2013-01-19 08:25:00,38.1,28.1,30.25,South,180,12.0,37.0,67,0.00,,,0.00,0088,Weather View 32 v70,2013-01-19 13:25:00,
2013-01-19 08:30:00,38.2,28.2,30.25,SSW,203,10.0,37.0,67,0.00,,,0.00,0088,Weather View 32 v70,2013-01-19 13:30:00,
2013-01-19 08:35:00,38.3,28.3,30.25,WSW,248,4.0,37.0,67,0.00,,,0.00,0128,Weather View 32 v70,2013-01-19 13:35:00,
2013-01-19 08:40:00,38.7,28.6,30.25,SW,225,7.0,37.0,67,0.00,,,0.00,0080,Weather View 32 v70,2013-01-19 13:40:00,
2013-01-19 08:45:00,39.0,28.6,30.25,WSW,248,11.0,37.0,66,0.00,,,0.00,0136,Weather View 32 v70,2013-01-19 13:45:00,
2013-01-19 08:50:00,39.1,28.7,30.25,SSW,203,4.0,28.0,66,0.00,,,0.00,0120,Weather View 32 v70,2013-01-19 13:50:00,
2013-01-19 08:55:00,39.3,28.9,30.25,SW,225,5.0,28.0,66,0.00,,,0.00,0136,Weather View 32 v70,2013-01-19 13:55:00,
2013-01-19 09:00:00,39.3,28.5,30.25,West,270,7.0,28.0,65,0.00,,,0.00,0184,Weather View 32 v70,2013-01-19 14:00:00,
2013-01-19 09:05:00,39.6,28.8,30.25,WSW,248,6.0,28.0,65,0.00,,,0.00,0184,Weather View 32 v70,2013-01-19 14:05:00,
2013-01-19 09:10:00,39.7,28.9,30.25,SW,225,8.0,28.0,65,0.00,,,0.00,0184,Weather View 32 v70,2013-01-19 14:10:00,
2013-01-19 09:15:00,39.9,29.1,30.25,SW,225,10.0,35.0,65,0.00,,,0.00,0248,Weather View 32 v70,2013-01-19 14:15:00,
2013-01-19 09:25:00,40.6,29.3,30.25,South,180,6.0,35.0,64,0.00,,,0.00,0248,Weather View 32 v70,2013-01-19 14:25:00,
2013-01-19 09:30:00,40.8,29.6,30.25,SW,225,6.0,35.0,64,0.00,,,0.00,0256,Weather View 32 v70,2013-01-19 14:30:00,
2013-01-19 09:40:00,41.0,29.0,30.25,SW,225,12.0,35.0,62,0.00,,,0.00,0288,Weather View 32 v70,2013-01-19 14:40:00,
2013-01-19 09:45:00,41.1,28.7,30.25,SW,225,6.0,35.0,61,0.00,,,0.00,0280,Weather View 32 v70,2013-01-19 14:45:00,
2013-01-19 09:55:00,41.6,28.7,30.25,South,180,4.0,35.0,60,0.00,,,0.00,0320,Weather View 32 v70,2013-01-19 14:55:00,
2013-01-19 10:00:00,41.7,29.2,30.24,WSW,248,2.0,35.0,61,0.00,,,0.00,0312,Weather View 32 v70,2013-01-19 15:00:00,
2013-01-19 10:10:00,42.3,29.4,30.24,WSW,248,5.0,35.0,60,0.00,,,0.00,0344,Weather View 32 v70,2013-01-19 15:10:00,
2013-01-19 10:15:00,42.4,28.6,30.24,West,270,5.0,26.0,58,0.00,,,0.00,0352,Weather View 32 v70,2013-01-19 15:15:00,
2013-01-19 10:20:00,42.5,28.7,30.23,WSW,248,7.0,26.0,58,0.00,,,0.00,0344,Weather View 32 v70,2013-01-19 15:20:00,
2013-01-19 10:25:00,42.7,29.0,30.23,WSW,248,4.0,26.0,58,0.00,,,0.00,0320,Weather View 32 v70,2013-01-19 15:25:00,
2013-01-19 10:30:00,42.7,29.0,30.23,WNW,293,8.0,24.0,58,0.00,,,0.00,0352,Weather View 32 v70,2013-01-19 15:30:00,
2013-01-19 10:35:00,42.8,28.6,30.22,WSW,248,4.0,24.0,57,0.00,,,0.00,0336,Weather View 32 v70,2013-01-19 15:35:00,
2013-01-19 10:45:00,43.5,29.7,30.21,East,90,0.0,24.0,58,0.00,,,0.00,0352,Weather View 32 v70,2013-01-19 15:45:00,
2013-01-19 10:50:00,43.7,28.6,30.21,SW,225,6.0,24.0,55,0.00,,,0.00,0352,Weather View 32 v70,2013-01-19 15:50:00,
2013-01-19 11:00:00,43.5,28.8,30.20,WSW,248,4.0,24.0,56,0.00,,,0.00,0384,Weather View 32 v70,2013-01-19 16:00:00,
2013-01-19 11:05:00,44.2,29.4,30.20,SSW,203,5.0,24.0,56,0.00,,,0.00,0392,Weather View 32 v70,2013-01-19 16:05:00,
2013-01-19 11:15:00,44.5,27.5,30.19,SW,225,7.0,24.0,51,0.00,,,0.00,0408,Weather View 32 v70,2013-01-19 16:15:00,
2013-01-19 11:20:00,44.7,28.6,30.18,WSW,248,8.0,24.0,53,0.00,,,0.00,0376,Weather View 32 v70,2013-01-19 16:20:00,
2013-01-19 11:30:00,45.2,28.1,30.17,WSW,248,5.0,24.0,51,0.00,,,0.00,0384,Weather View 32 v70,2013-01-19 16:30:00,
2013-01-19 11:40:00,45.3,27.7,30.16,SW,225,5.0,24.0,50,0.00,,,0.00,0408,Weather View 32 v70,2013-01-19 16:40:00,
2013-01-19 11:45:00,45.5,26.9,30.16,SSW,203,7.0,36.0,48,0.00,,,0.00,0392,Weather View 32 v70,2013-01-19 16:45:00,
2013-01-19 11:50:00,45.6,27.5,30.16,WSW,248,7.0,36.0,49,0.00,,,0.00,0384,Weather View 32 v70,2013-01-19 16:50:00,
2013-01-19 12:00:00,45.1,27.0,30.15,West,270,6.0,36.0,49,0.00,,,0.00,0408,Weather View 32 v70,2013-01-19 17:00:00,
2013-01-19 12:06:00,45.3,27.2,30.15,WSW,248,8.0,36.0,49,0.00,,,0.00,0408,Weather View 32 v70,2013-01-19 17:06:00,
2013-01-19 12:15:00,45.2,27.1,30.14,SSW,203,4.0,36.0,49,0.00,,,0.00,0408,Weather View 32 v70,2013-01-19 17:15:00,
2013-01-19 12:30:00,45.8,27.6,30.13,WSW,248,9.0,36.0,49,0.00,,,0.00,0408,Weather View 32 v70,2013-01-19 17:30:00,
2013-01-19 12:40:00,45.5,26.9,30.12,SW,225,6.0,36.0,48,0.00,,,0.00,0376,Weather View 32 v70,2013-01-19 17:40:00,
2013-01-19 12:50:00,45.5,27.4,30.12,SSW,203,15.0,35.0,49,0.00,,,0.00,0368,Weather View 32 v70,2013-01-19 17:50:00,
2013-01-19 12:55:00,45.6,27.0,30.11,West,270,22.0,35.0,48,0.00,,,0.00,0368,Weather View 32 v70,2013-01-19 17:55:00,
2013-01-19 13:00:00,45.6,27.5,30.11,WSW,248,7.0,39.0,49,0.00,,,0.00,0360,Weather View 32 v70,2013-01-19 18:00:00,
2013-01-19 13:10:00,46.5,28.4,30.11,SW,225,4.0,39.0,49,0.00,,,0.00,0344,Weather View 32 v70,2013-01-19 18:10:00,
2013-01-19 13:15:00,46.5,27.4,30.10,SSW,203,6.0,39.0,47,0.00,,,0.00,0392,Weather View 32 v70,2013-01-19 18:15:00,
2013-01-19 13:25:00,46.5,28.4,30.10,WSW,248,8.0,39.0,49,0.00,,,0.00,0424,Weather View 32 v70,2013-01-19 18:25:00,
2013-01-19 13:35:00,46.9,27.7,30.10,West,270,4.0,39.0,47,0.00,,,0.00,0480,Weather View 32 v70,2013-01-19 18:35:00,
2013-01-19 13:50:00,46.5,27.9,30.09,WSW,248,11.0,39.0,48,0.00,,,0.00,0432,Weather View 32 v70,2013-01-19 18:50:00,
2013-01-19 13:55:00,46.5,27.9,30.09,WNW,293,2.0,39.0,48,0.00,,,0.00,0392,Weather View 32 v70,2013-01-19 18:55:00,
2013-01-19 14:05:00,46.3,28.2,30.08,SW,225,4.0,37.0,49,0.00,,,0.00,0336,Weather View 32 v70,2013-01-19 19:05:00,
2013-01-19 14:15:00,46.7,28.0,30.07,SW,225,8.0,26.0,48,0.00,,,0.00,0248,Weather View 32 v70,2013-01-19 19:15:00,
2013-01-19 14:25:00,46.1,28.5,30.07,WNW,293,8.0,26.0,50,0.00,,,0.00,0328,Weather View 32 v70,2013-01-19 19:25:00,
2013-01-19 14:30:00,45.9,28.7,30.07,WSW,248,5.0,26.0,51,0.00,,,0.00,0200,Weather View 32 v70,2013-01-19 19:30:00,
2013-01-19 14:35:00,45.8,28.1,30.07,WSW,248,9.0,26.0,50,0.00,,,0.00,0208,Weather View 32 v70,2013-01-19 19:35:00,
2013-01-19 14:40:00,45.6,28.0,30.06,WSW,248,6.0,26.0,50,0.00,,,0.00,0224,Weather View 32 v70,2013-01-19 19:40:00,
2013-01-19 14:50:00,45.2,28.1,30.06,SW,225,7.0,22.0,51,0.00,,,0.00,0232,Weather View 32 v70,2013-01-19 19:50:00,
2013-01-19 15:00:00,45.0,27.9,30.06,SW,225,7.0,22.0,51,0.00,,,0.00,0144,Weather View 32 v70,2013-01-19 20:00:00,
2013-01-19 15:05:00,44.9,28.3,30.06,SW,225,3.0,22.0,52,0.00,,,0.00,0072,Weather View 32 v70,2013-01-19 20:05:00,
2013-01-19 15:15:00,44.5,28.4,30.06,WSW,248,6.0,22.0,53,0.00,,,0.00,0080,Weather View 32 v70,2013-01-19 20:15:00,
2013-01-19 15:25:00,44.4,29.7,30.06,SW,225,3.0,22.0,56,0.00,,,0.00,0064,Weather View 32 v70,2013-01-19 20:25:00,
2013-01-19 15:30:00,44.3,29.6,30.07,WSW,248,2.0,22.0,56,0.00,,,0.00,0096,Weather View 32 v70,2013-01-19 20:30:00,
2013-01-19 15:35:00,44.2,29.9,30.07,SW,225,5.0,20.0,57,0.00,,,0.00,0088,Weather View 32 v70,2013-01-19 20:35:00,
2013-01-19 15:40:00,44.1,29.4,30.07,WSW,248,5.0,19.0,56,0.00,,,0.00,0080,Weather View 32 v70,2013-01-19 20:40:00,
2013-01-19 15:50:00,44.0,29.2,30.06,SW,225,3.0,19.0,56,0.00,,,0.00,0064,Weather View 32 v70,2013-01-19 20:50:00,
2013-01-19 16:00:00,43.7,29.5,30.05,SW,225,3.0,19.0,57,0.00,,,0.00,0024,Weather View 32 v70,2013-01-19 21:00:00,
2013-01-19 16:05:00,43.4,28.7,30.06,SW,225,6.0,17.0,56,0.00,,,0.00,0016,Weather View 32 v70,2013-01-19 21:05:00,
2013-01-19 16:15:00,43.3,28.6,30.06,West,270,2.0,17.0,56,0.00,,,0.00,0008,Weather View 32 v70,2013-01-19 21:15:00,
2013-01-19 16:20:00,43.1,28.4,30.06,WSW,248,7.0,17.0,56,0.00,,,0.00,0016,Weather View 32 v70,2013-01-19 21:20:00,
2013-01-19 16:30:00,42.7,29.0,30.06,SSW,203,7.0,37.0,58,0.00,,,0.00,0000,Weather View 32 v70,2013-01-19 21:30:00,
2013-01-19 16:40:00,42.6,28.8,30.06,SW,225,9.0,37.0,58,0.00,,,0.00,0000,Weather View 32 v70,2013-01-19 21:40:00,
2013-01-19 16:45:00,42.4,29.0,30.05,WSW,248,5.0,37.0,59,0.00,,,0.00,0000,Weather View 32 v70,2013-01-19 21:45:00,
2013-01-19 16:50:00,42.0,29.1,30.05,SW,225,4.0,37.0,60,0.00,,,0.00,0000,Weather View 32 v70,2013-01-19 21:50:00,
2013-01-19 16:55:00,41.8,28.9,30.05,WSW,248,5.0,37.0,60,0.00,,,0.00,0000,Weather View 32 v70,2013-01-19 21:55:00,
2013-01-19 17:00:00,41.6,29.1,30.05,WSW,248,1.0,37.0,61,0.00,,,0.00,0000,Weather View 32 v70,2013-01-19 22:00:00,
2013-01-19 17:15:00,41.3,29.6,30.04,West,270,5.0,37.0,63,0.00,,,0.00,0000,Weather View 32 v70,2013-01-19 22:15:00,
2013-01-19 17:25:00,41.3,30.0,30.04,WSW,248,6.0,37.0,64,0.00,,,0.00,0008,Weather View 32 v70,2013-01-19 22:25:00,
2013-01-19 17:30:00,41.1,30.3,30.05,West,270,0.0,18.0,65,0.00,,,0.00,0000,Weather View 32 v70,2013-01-19 22:30:00,
2013-01-19 17:40:00,41.3,30.7,30.05,WSW,248,2.0,16.0,66,0.00,,,0.00,0008,Weather View 32 v70,2013-01-19 22:40:00,
2013-01-19 17:50:00,40.9,30.8,30.05,WSW,248,4.0,14.0,67,0.00,,,0.00,0000,Weather View 32 v70,2013-01-19 22:50:00,
2013-01-19 17:55:00,40.9,30.8,30.05,WSW,248,3.0,14.0,67,0.00,,,0.00,0008,Weather View 32 v70,2013-01-19 22:55:00,
2013-01-19 18:05:00,40.9,31.5,30.04,WSW,248,4.0,14.0,69,0.00,,,0.00,0000,Weather View 32 v70,2013-01-19 23:05:00,
2013-01-19 18:15:00,41.0,31.6,30.05,WSW,248,5.0,14.0,69,0.00,,,0.00,0000,Weather View 32 v70,2013-01-19 23:15:00,
2013-01-19 18:20:00,40.9,31.5,30.04,SW,225,5.0,14.0,69,0.00,,,0.00,0008,Weather View 32 v70,2013-01-19 23:20:00,
2013-01-19 18:25:00,40.9,31.9,30.04,West,270,0.0,14.0,70,0.00,,,0.00,0000,Weather View 32 v70,2013-01-19 23:25:00,
2013-01-19 18:35:00,40.7,31.7,30.05,SSW,203,4.0,14.0,70,0.00,,,0.00,0000,Weather View 32 v70,2013-01-19 23:35:00,
2013-01-19 18:40:00,40.5,31.4,30.04,WNW,293,2.0,14.0,70,0.00,,,0.00,0000,Weather View 32 v70,2013-01-19 23:40:00,
2013-01-19 19:05:00,40.5,31.8,30.04,WSW,248,1.0,23.0,71,0.00,,,0.00,0000,Weather View 32 v70,2013-01-20 00:05:00,
2013-01-19 19:15:00,40.2,31.6,30.04,WSW,248,5.0,23.0,71,0.00,,,0.00,0000,Weather View 32 v70,2013-01-20 00:15:00,
2013-01-19 19:20:00,40.1,31.5,30.04,West,270,2.0,23.0,71,0.00,,,0.00,0000,Weather View 32 v70,2013-01-20 00:20:00,
2013-01-19 19:25:00,40.0,31.7,30.04,West,270,1.0,23.0,72,0.00,,,0.00,0000,Weather View 32 v70,2013-01-20 00:25:00,
2013-01-19 19:35:00,40.2,31.9,30.04,WSW,248,0.0,23.0,72,0.00,,,0.00,0000,Weather View 32 v70,2013-01-20 00:35:00,
2013-01-19 19:45:00,40.1,31.8,30.03,WSW,248,1.0,23.0,72,0.00,,,0.00,0000,Weather View 32 v70,2013-01-20 00:45:00,
2013-01-19 19:55:00,40.1,31.8,30.03,WSW,248,2.0,18.0,72,0.00,,,0.00,0000,Weather View 32 v70,2013-01-20 00:55:00,
2013-01-19 20:00:00,40.1,31.8,30.02,WNW,293,4.0,18.0,72,0.00,,,0.00,0000,Weather View 32 v70,2013-01-20 01:00:00,
2013-01-19 20:10:00,40.4,32.0,30.02,South,180,3.0,18.0,72,0.00,,,0.00,0000,Weather View 32 v70,2013-01-20 01:10:00,
2013-01-19 20:25:00,40.4,31.7,30.02,SW,225,0.0,18.0,71,0.00,,,0.00,0016,Weather View 32 v70,2013-01-20 01:25:00,
2013-01-19 20:30:00,40.2,31.6,30.02,West,270,0.0,18.0,71,0.00,,,0.00,0000,Weather View 32 v70,2013-01-20 01:30:00,
2013-01-19 20:35:00,40.8,32.1,30.02,SSE,158,4.0,15.0,71,0.00,,,0.00,0000,Weather View 32 v70,2013-01-20 01:35:00,
2013-01-19 20:40:00,40.6,31.9,30.02,SSW,203,5.0,15.0,71,0.00,,,0.00,0000,Weather View 32 v70,2013-01-20 01:40:00,
2013-01-19 20:45:00,40.6,31.9,30.02,WNW,293,2.0,15.0,71,0.00,,,0.00,0000,Weather View 32 v70,2013-01-20 01:45:00,
2013-01-19 20:50:00,40.5,32.1,30.01,WSW,248,0.0,15.0,72,0.00,,,0.00,0000,Weather View 32 v70,2013-01-20 01:50:00,
2013-01-19 20:55:00,40.2,31.9,30.01,WSW,248,2.0,11.0,72,0.00,,,0.00,0000,Weather View 32 v70,2013-01-20 01:55:00,
2013-01-19 21:05:00,40.5,32.1,30.01,West,270,3.0,9.0,72,0.00,,,0.00,0000,Weather View 32 v70,2013-01-20 02:05:00,
2013-01-19 21:10:00,40.5,32.1,30.00,West,270,0.0,9.0,72,0.00,,,0.00,0008,Weather View 32 v70,2013-01-20 02:10:00,
2013-01-19 21:25:00,40.4,32.0,30.00,West,270,2.0,11.0,72,0.00,,,0.00,0000,Weather View 32 v70,2013-01-20 02:25:00,
2013-01-19 21:30:00,40.4,32.0,30.00,WSW,248,4.0,11.0,72,0.00,,,0.00,0016,Weather View 32 v70,2013-01-20 02:30:00,
2013-01-19 21:40:00,40.6,31.9,30.00,SW,225,2.0,16.0,71,0.00,,,0.00,0000,Weather View 32 v70,2013-01-20 02:40:00,
2013-01-19 21:45:00,40.6,31.9,30.00,WSW,248,0.0,16.0,71,0.00,,,0.00,0000,Weather View 32 v70,2013-01-20 02:45:00,
2013-01-19 21:50:00,40.5,31.8,29.99,WSW,248,0.0,16.0,71,0.00,,,0.00,0000,Weather View 32 v70,2013-01-20 02:50:00,
2013-01-19 21:55:00,40.4,32.0,29.99,West,270,0.0,16.0,72,0.00,,,0.00,0000,Weather View 32 v70,2013-01-20 02:55:00,
2013-01-19 22:05:00,40.1,31.8,29.99,WSW,248,4.0,16.0,72,0.00,,,0.00,0000,Weather View 32 v70,2013-01-20 03:05:00,
2013-01-19 22:10:00,40.0,31.7,29.99,SW,225,2.0,16.0,72,0.00,,,0.00,0000,Weather View 32 v70,2013-01-20 03:10:00,
2013-01-19 22:20:00,39.8,31.8,29.98,West,270,2.0,16.0,73,0.00,,,0.00,0000,Weather View 32 v70,2013-01-20 03:20:00,
2013-01-19 22:25:00,39.6,32.0,29.98,West,270,1.0,16.0,74,0.00,,,0.00,0000,Weather View 32 v70,2013-01-20 03:25:00,
2013-01-19 22:35:00,39.7,32.1,29.98,SW,225,0.0,9.0,74,0.00,,,0.00,0000,Weather View 32 v70,2013-01-20 03:35:00,
2013-01-19 22:40:00,39.8,32.5,29.98,West,270,1.0,8.0,75,0.00,,,0.00,0000,Weather View 32 v70,2013-01-20 03:40:00,
2013-01-19 22:50:00,39.7,32.4,29.97,WNW,293,6.0,10.0,75,0.00,,,0.00,0000,Weather View 32 v70,2013-01-20 03:50:00,
2013-01-19 23:00:00,39.9,32.3,29.96,SSW,203,5.0,11.0,74,0.00,,,0.00,0000,Weather View 32 v70,2013-01-20 04:00:00,
2013-01-19 23:05:00,40.1,32.5,29.96,SSW,203,3.0,11.0,74,0.00,,,0.00,0000,Weather View 32 v70,2013-01-20 04:05:00,
2013-01-19 23:15:00,40.5,32.1,29.96,West,270,6.0,12.0,72,0.00,,,0.00,0000,Weather View 32 v70,2013-01-20 04:15:00,
2013-01-19 23:20:00,40.7,32.0,29.96,West,270,6.0,12.0,71,0.00,,,0.00,0000,Weather View 32 v70,2013-01-20 04:20:00,
2013-01-19 23:25:00,41.1,31.7,29.95,SW,225,4.0,12.0,69,0.00,,,0.00,0000,Weather View 32 v70,2013-01-20 04:25:00,
2013-01-19 23:35:00,41.4,31.2,29.95,WSW,248,5.0,14.0,67,0.00,,,0.00,0000,Weather View 32 v70,2013-01-20 04:35:00,
2013-01-19 23:45:00,41.7,31.5,29.94,SW,225,5.0,14.0,67,0.00,,,0.00,0000,Weather View 32 v70,2013-01-20 04:45:00,
2013-01-19 23:55:00,41.7,31.9,29.93,SW,225,4.0,14.0,68,0.00,,,0.00,0000,Weather View 32 v70,2013-01-20 04:55:00,